Tracking 30743 objects as of 21-Jun-2025
HD Live streaming from Space Station
objects crossing your sky now

NOAA 16 DEB

Track NOAA 16 DEB now!
10-day predictions


NORAD ID: 41140
Int'l Code: 2000-055BX
Perigee: 649.0 km
Apogee: 693.3 km
Inclination: 98.9 °
Period: 98.0 minutes
Semi major axis: 7042 km
RCS: Unknown
Launch date: September 21, 2000
Source: United States (US)
Launch site: AIR FORCE WESTERN TEST RANGE (AFWTR)

Note: This is SATELLITE DEBRIS
Your satellite tracking list
Your tracking list is empty




NASA's NSSDC Master Catalog

Two Line Element Set (TLE):
1 41140U 00055BX  25171.27309848  .00012794  00000-0  21687-2 0  9996
2 41140  98.8512 341.6939 0031417 300.2611  59.5484 14.69077056499584
Source of the keplerian elements: AFSPC